QPF
0.00 0.00 0.00 0.00 0.00 0.00 0.00 0.00 0.00 0.00 0.00 0.00 0.00 0.00 0.01 0.02 0.05 0.08 0.08 0.07 0.05 0.05 0.07 0.06 0.06 0.05 0.05 0.05 0.04 0.05 0.05 0.03 0.03 0.03 0.04 0.04 0.03 0.04 0.04 0.04 0.04 0.06 0.07 0.07
0.00 0.00 0.00 0.00 0.00 0.00 0.00 0.00 0.00 0.00 0.00 0.00 0.00 0.01 0.01 0.02 0.03 0.07 0.08 0.06 0.04 0.04 0.04 0.05 0.05 0.05 0.05 0.04 0.04 0.04 0.02 0.02 0.02 0.02 0.03 0.04 0.04 0.04 0.04 0.05 0.06 0.05 0.05 0.05
0.00 0.00 0.00 0.00 0.00 0.00 0.00 0.00 0.00 0.00 0.00 0.00 0.00 0.01 0.01 0.01 0.01 0.03 0.05 0.04 0.04 0.03 0.04 0.05 0.03 0.02 0.03 0.03 0.03 0.03 0.03 0.03 0.03 0.03 0.03 0.03 0.03 0.03 0.04 0.04 0.04 0.05 0.05 0.04
0.00 0.00 0.00 0.00 0.00 0.00 0.00 0.00 0.00 0.00 0.00 0.01 0.01 0.01 0.01 0.01 0.01 0.02 0.02 0.02 0.03 0.03 0.03 0.04 0.03 0.02 0.01 0.02 0.03 0.04 0.04 0.03 0.03 0.03 0.03 0.03 0.03 0.03 0.04 0.04 0.04 0.04 0.04 0.04
0.00 0.00 0.00 0.00 0.00 0.00 0.00 0.00 0.00 0.00 0.00 0.01 0.01 0.01 0.01 0.01 0.02 0.02 0.03 0.03 0.03 0.03 0.03 0.02 0.02 0.02 0.02 0.02 0.03 0.04 0.03 0.01 0.01 0.02 0.01 0.02 0.02 0.03 0.04 0.05 0.05 0.05 0.05 0.04
0.00 0.00 0.00 0.00 0.00 0.00 0.00 0.00 0.00 0.00 0.00 0.01 0.02 0.01 0.01 0.01 0.01 0.02 0.03 0.03 0.03 0.02 0.02 0.02 0.02 0.02 0.02 0.03 0.03 0.04 0.03 0.03 0.02 0.01 0.01 0.01 0.01 0.03 0.05 0.06 0.06 0.07 0.07 0.06
0.00 0.00 0.00 0.00 0.00 0.00 0.00 0.00 0.00 0.00 0.01 0.02 0.02 0.02 0.01 0.02 0.03 0.04 0.04 0.04 0.04 0.03 0.02 0.02 0.02 0.02 0.02 0.02 0.03 0.02 0.02 0.01 0.01 0.00 0.01 0.00 0.01 0.02 0.03 0.07 0.09 0.11 0.09 0.08
0.00 0.00 0.00 0.00 0.00 0.00 0.00 0.00 0.00 0.00 0.02 0.03 0.03 0.03 0.04 0.05 0.06 0.06 0.05 0.05 0.04 0.03 0.02 0.02 0.02 0.01 0.01 0.01 0.02 0.01 0.01 0.01 0.01 0.01 0.00 0.00 0.01 0.01 0.01 0.04 0.08 0.10 0.11 0.10
0.00 0.00 0.00 0.00 0.00 0.00 0.00 0.00 0.01 0.01 0.02 0.03 0.04 0.04 0.06 0.08 0.09 0.09 0.08 0.07 0.06 0.04 0.02 0.02 0.02 0.01 0.01 0.01 0.02 0.02 0.01 0.01 0.01 0.01 0.01 0.01 0.01 0.01 0.01 0.02 0.03 0.05 0.08 0.09
0.01 0.01 0.01 0.01 0.01 0.01 0.01 0.01 0.02 0.02 0.02 0.03 0.05 0.05 0.05 0.08 0.11 0.10 0.09 0.08 0.06 0.03 0.02 0.01 0.01 0.01 0.02 0.01 0.01 0.01 0.00 0.01 0.01 0.01 0.01 0.01 0.01 0.01 0.01 0.02 0.02 0.02 0.03 0.04
0.02 0.01 0.02 0.02 0.02 0.03 0.03 0.03 0.04 0.03 0.04 0.05 0.04 0.05 0.05 0.04 0.05 0.05 0.05 0.05 0.03 0.02 0.02 0.01 0.01 0.01 0.01 0.01 0.01 0.01 0.01 0.01 0.02 0.03 0.03 0.03 0.02 0.03 0.03 0.03 0.03 0.03 0.02 0.02
0.03 0.03 0.04 0.05 0.06 0.05 0.05 0.05 0.05 0.05 0.05 0.06 0.05 0.03 0.03 0.02 0.02 0.03 0.03 0.03 0.03 0.02 0.02 0.01 0.02 0.02 0.02 0.02 0.02 0.03 0.03 0.03 0.03 0.03 0.02 0.01 0.01 0.02 0.03 0.03 0.03 0.03 0.03 0.03
0.02 0.02 0.05 0.09 0.09 0.07 0.06 0.05 0.05 0.05 0.06 0.06 0.04 0.03 0.02 0.02 0.03 0.03 0.03 0.02 0.02 0.02 0.02 0.02 0.01 0.01 0.01 0.02 0.03 0.04 0.04 0.05 0.04 0.03 0.02 0.02 0.01 0.01 0.01 0.01 0.01 0.01 0.02 0.02
0.02 0.03 0.05 0.10 0.10 0.09 0.09 0.08 0.07 0.08 0.08 0.08 0.07 0.04 0.03 0.03 0.03 0.04 0.04 0.02 0.01 0.01 0.02 0.02 0.01 0.02 0.01 0.01 0.01 0.02 0.02 0.03 0.03 0.02 0.01 0.01 0.01 0.01 0.01 0.01 0.01 0.01 0.02 0.02
0.04 0.04 0.05 0.08 0.10 0.10 0.10 0.10 0.09 0.08 0.08 0.07 0.06 0.04 0.03 0.02 0.02 0.02 0.02 0.01 0.01 0.02 0.03 0.02 0.02 0.02 0.01 0.01 0.01 0.01 0.01 0.01 0.02 0.02 0.02 0.02 0.02 0.01 0.01 0.02 0.02 0.03 0.04 0.05
0.06 0.06 0.08 0.13 0.15 0.12 0.08 0.08 0.08 0.07 0.06 0.05 0.04 0.02 0.02 0.02 0.01 0.01 0.01 0.01 0.01 0.02 0.03 0.03 0.03 0.02 0.01 0.01 0.01 0.01 0.01 0.02 0.02 0.02 0.02 0.03 0.04 0.03 0.03 0.03 0.03 0.03 0.02 0.02
0.09 0.06 0.07 0.12 0.13 0.11 0.10 0.09 0.07 0.05 0.04 0.03 0.03 0.02 0.02 0.02 0.01 0.01 0.01 0.01 0.01 0.02 0.04 0.06 0.07 0.06 0.04 0.02 0.01 0.01 0.01 0.01 0.02 0.02 0.02 0.03 0.04 0.05 0.05 0.04 0.04 0.03 0.02 0.01
0.12 0.08 0.06 0.07 0.09 0.08 0.08 0.08 0.07 0.05 0.03 0.03 0.02 0.01 0.01 0.01 0.01 0.01 0.01 0.01 0.02 0.02 0.04 0.08 0.11 0.10 0.09 0.07 0.04 0.03 0.02 0.01 0.01 0.01 0.01 0.01 0.02 0.02 0.02 0.01 0.01 0.01 0.01 0.01
0.11 0.09 0.07 0.07 0.07 0.06 0.05 0.04 0.04 0.04 0.03 0.02 0.01 0.01 0.01 0.01 0.02 0.02 0.02 0.01 0.01 0.02 0.02 0.04 0.07 0.07 0.06 0.06 0.05 0.04 0.03 0.01 0.01 0.00 0.00 0.00 0.00 0.00 0.00 0.00 0.00 0.00 0.00 0.00
0.09 0.07 0.06 0.05 0.05 0.04 0.03 0.02 0.02 0.02 0.02 0.02 0.01 0.01 0.01 0.02 0.02 0.02 0.02 0.01 0.01 0.01 0.01 0.01 0.01 0.02 0.02 0.02 0.02 0.01 0.01 0.00 0.00 0.00 0.00 0.00 0.00 0.00 0.00 0.00 0.00 0.00 0.00 0.00
0.08 0.06 0.05 0.03 0.03 0.03 0.02 0.02 0.02 0.02 0.01 0.01 0.01 0.01 0.01 0.02 0.02 0.02 0.02 0.02 0.01 0.01 0.01 0.01 0.01 0.01 0.01 0.01 0.00 0.00 0.00 0.00 0.00 0.00 0.00 0.00 0.00 0.00 0.00 0.00 0.00 0.00 0.00 0.00
0.07 0.05 0.04 0.03 0.02 0.02 0.03 0.02 0.02 0.01 0.01 0.01 0.01 0.01 0.01 0.02 0.01 0.01 0.01 0.01 0.01 0.01 0.01 0.00 0.00 0.01 0.00 0.00 0.00 0.00 0.00 0.00 0.00 0.00 0.00 0.00 0.00 0.00 0.00 0.00 0.00 0.00 0.00 0.00
0.06 0.05 0.04 0.03 0.03 0.02 0.02 0.02 0.02 0.02 0.01 0.01 0.01 0.01 0.01 0.01 0.01 0.01 0.01 0.01 0.01 0.01 0.01 0.00 0.00 0.00 0.00 0.00 0.00 0.00 0.00 0.00 0.00 0.00 0.00 0.00 0.00 0.00 0.00 0.00 0.00 0.00 0.00 0.00
0.05 0.05 0.04 0.04 0.03 0.02 0.02 0.02 0.01 0.02 0.02 0.02 0.02 0.02 0.02 0.01 0.01 0.01 0.00 0.01 0.01 0.01 0.00 0.00 0.00 0.00 0.00 0.00 0.00 0.00 0.00 0.00 0.00 0.00 0.00 0.00 0.00 0.00 0.00 0.00 0.00 0.00 0.00 0.00
0.04 0.03 0.03 0.03 0.03 0.02 0.02 0.02 0.02 0.02 0.02 0.03 0.03 0.03 0.02 0.01 0.01 0.00 0.00 0.00 0.00 0.00 0.00 0.00 0.00 0.00 0.00 0.00 0.00 0.00 0.00 0.00 0.00 0.00 0.00 0.00 0.00 0.00 0.00 0.00 0.00 0.00 0.00 0.00
0.03 0.02 0.02 0.03 0.02 0.02 0.02 0.02 0.02 0.01 0.01 0.02 0.02 0.03 0.02 0.01 0.00 0.00 0.00 0.00 0.00 0.00 0.00 0.00 0.00 0.00 0.00 0.00 0.00 0.00 0.00 0.00 0.00 0.00 0.00 0.00 0.00 0.00 0.00 0.00 0.00 0.00 0.00 0.00
0.02 0.02 0.02 0.02 0.02 0.02 0.02 0.02 0.02 0.02 0.01 0.02 0.02 0.01 0.01 0.00 0.00 0.00 0.00 0.00 0.00 0.00 0.00 0.00 0.00 0.00 0.00 0.00 0.00 0.00 0.00 0.00 0.00 0.00 0.00 0.00 0.00 0.00 0.00 0.00 0.00 0.00 0.00 0.00
MSLP
1013.15 1013.26 1013.47 1013.75 1014.06 1014.32 1014.46 1014.43 1014.18 1013.71 1013.08 1012.34 1011.61 1010.98 1010.54 1010.33 1010.39 1010.67 1011.13 1011.68 1012.22 1012.68 1013.02 1013.20 1013.24 1013.18 1013.07 1012.96 1012.89 1012.90 1012.97 1013.11 1013.28 1013.45 1013.60 1013.70 1013.75 1013.77 1013.78 1013.79 1013.83 1013.92 1014.07 1014.26
1013.52 1013.51 1013.52 1013.56 1013.58 1013.55 1013.43 1013.20 1012.83 1012.35 1011.78 1011.20 1010.67 1010.26 1010.02 1009.99 1010.17 1010.52 1010.99 1011.51 1012.00 1012.43 1012.74 1012.93 1013.01 1013.02 1012.99 1012.96 1012.98 1013.05 1013.16 1013.32 1013.49 1013.64 1013.77 1013.85 1013.89 1013.90 1013.90 1013.92 1013.97 1014.06 1014.20 1014.38
1013.96 1013.85 1013.71 1013.53 1013.31 1013.04 1012.69 1012.28 1011.79 1011.27 1010.75 1010.26 1009.88 1009.63 1009.55 1009.64 1009.90 1010.29 1010.76 1011.26 1011.73 1012.13 1012.45 1012.67 1012.81 1012.90 1012.97 1013.04 1013.13 1013.25 1013.39 1013.55 1013.70 1013.83 1013.92 1013.97 1014.00 1014.01 1014.02 1014.06 1014.13 1014.25 1014.40 1014.60
1014.40 1014.23 1013.98 1013.66 1013.26 1012.80 1012.27 1011.70 1011.12 1010.55 1010.02 1009.59 1009.29 1009.14 1009.15 1009.32 1009.62 1010.03 1010.51 1010.99 1011.46 1011.87 1012.22 1012.51 1012.73 1012.92 1013.08 1013.23 1013.39 1013.55 1013.70 1013.83 1013.94 1014.02 1014.06 1014.08 1014.09 1014.10 1014.13 1014.21 1014.32 1014.48 1014.68 1014.91
1014.78 1014.58 1014.28 1013.86 1013.35 1012.76 1012.10 1011.42 1010.75 1010.13 1009.59 1009.17 1008.90 1008.80 1008.85 1009.06 1009.38 1009.81 1010.28 1010.78 1011.27 1011.73 1012.14 1012.50 1012.82 1013.11 1013.36 1013.59 1013.79 1013.96 1014.09 1014.18 1014.23 1014.24 1014.23 1014.20 1014.18 1014.20 1014.26 1014.37 1014.55 1014.77 1015.03 1015.31
1015.07 1014.85 1014.52 1014.06 1013.48 1012.82 1012.09 1011.34 1010.61 1009.94 1009.38 1008.96 1008.69 1008.60 1008.67 1008.88 1009.22 1009.66 1010.15 1010.68 1011.21 1011.73 1012.22 1012.68 1013.10 1013.49 1013.82 1014.11 1014.34 1014.50 1014.60 1014.63 1014.60 1014.54 1014.45 1014.38 1014.34 1014.35 1014.43 1014.59 1014.82 1015.11 1015.44 1015.78
1015.21 1014.98 1014.64 1014.16 1013.57 1012.88 1012.12 1011.34 1010.58 1009.90 1009.32 1008.89 1008.62 1008.52 1008.60 1008.82 1009.17 1009.62 1010.14 1010.71 1011.30 1011.89 1012.48 1013.03 1013.55 1014.02 1014.43 1014.75 1014.99 1015.14 1015.19 1015.16 1015.06 1014.92 1014.78 1014.65 1014.58 1014.59 1014.70 1014.89 1015.18 1015.53 1015.92 1016.32
1015.21 1014.96 1014.61 1014.13 1013.54 1012.86 1012.11 1011.34 1010.59 1009.91 1009.33 1008.90 1008.64 1008.55 1008.63 1008.86 1009.23 1009.71 1010.27 1010.88 1011.54 1012.21 1012.87 1013.51 1014.11 1014.64 1015.10 1015.45 1015.70 1015.82 1015.84 1015.75 1015.60 1015.40 1015.21 1015.05 1014.96 1014.97 1015.09 1015.32 1015.64 1016.04 1016.49 1016.95
1015.08 1014.79 1014.42 1013.95 1013.38 1012.73 1012.01 1011.28 1010.56 1009.92 1009.38 1008.98 1008.74 1008.67 1008.78 1009.03 1009.42 1009.93 1010.53 1011.19 1011.90 1012.62 1013.34 1014.04 1014.69 1015.27 1015.75 1016.13 1016.37 1016.48 1016.48 1016.37 1016.18 1015.96 1015.74 1015.57 1015.48 1015.49 1015.63 1015.88 1016.24 1016.67 1017.16 1017.66
1014.82 1014.49 1014.10 1013.64 1013.10 1012.48 1011.82 1011.15 1010.50 1009.91 1009.43 1009.08 1008.90 1008.88 1009.02 1009.31 1009.74 1010.28 1010.91 1011.61 1012.34 1013.10 1013.84 1014.57 1015.23 1015.82 1016.32 1016.70 1016.94 1017.06 1017.06 1016.95 1016.78 1016.56 1016.36 1016.21 1016.13 1016.17 1016.32 1016.59 1016.97 1017.42 1017.93 1018.45
1014.44 1014.07 1013.67 1013.22 1012.71 1012.15 1011.55 1010.96 1010.39 1009.89 1009.49 1009.22 1009.11 1009.16 1009.36 1009.70 1010.17 1010.74 1011.40 1012.10 1012.84 1013.59 1014.33 1015.03 1015.68 1016.26 1016.74 1017.12 1017.37 1017.51 1017.54 1017.47 1017.34 1017.19 1017.04 1016.93 1016.90 1016.98 1017.16 1017.44 1017.83 1018.28 1018.79 1019.32
1013.93 1013.54 1013.14 1012.71 1012.25 1011.75 1011.24 1010.73 1010.26 1009.86 1009.56 1009.39 1009.37 1009.51 1009.78 1010.19 1010.70 1011.30 1011.96 1012.66 1013.38 1014.09 1014.78 1015.43 1016.03 1016.57 1017.02 1017.39 1017.65 1017.83 1017.91 1017.92 1017.87 1017.80 1017.74 1017.72 1017.76 1017.88 1018.10 1018.40 1018.79 1019.24 1019.74 1020.25
1013.27 1012.90 1012.52 1012.14 1011.74 1011.31 1010.89 1010.48 1010.11 1009.82 1009.64 1009.59 1009.68 1009.90 1010.26 1010.74 1011.30 1011.93 1012.59 1013.27 1013.94 1014.59 1015.21 1015.79 1016.32 1016.79 1017.21 1017.56 1017.84 1018.05 1018.21 1018.31 1018.37 1018.42 1018.47 1018.54 1018.67 1018.85 1019.11 1019.44 1019.83 1020.27 1020.74 1021.23
1012.45 1012.13 1011.82 1011.51 1011.18 1010.85 1010.52 1010.21 1009.96 1009.79 1009.73 1009.79 1009.99 1010.33 1010.78 1011.33 1011.94 1012.60 1013.26 1013.91 1014.53 1015.11 1015.65 1016.14 1016.59 1017.00 1017.37 1017.70 1018.00 1018.26 1018.49 1018.69 1018.87 1019.04 1019.21 1019.39 1019.60 1019.86 1020.16 1020.50 1020.89 1021.32 1021.77 1022.23
1011.47 1011.25 1011.03 1010.82 1010.59 1010.36 1010.13 1009.94 1009.80 1009.75 1009.81 1009.99 1010.31 1010.76 1011.31 1011.93 1012.60 1013.29 1013.96 1014.59 1015.16 1015.68 1016.14 1016.55 1016.92 1017.27 1017.59 1017.91 1018.22 1018.52 1018.82 1019.11 1019.40 1019.68 1019.96 1020.25 1020.54 1020.86 1021.20 1021.56 1021.95 1022.36 1022.79 1023.22
1010.40 1010.29 1010.20 1010.10 1009.99 1009.87 1009.75 1009.67 1009.64 1009.71 1009.88 1010.18 1010.62 1011.17 1011.81 1012.52 1013.25 1013.97 1014.65 1015.28 1015.82 1016.29 1016.69 1017.04 1017.35 1017.64 1017.93 1018.23 1018.55 1018.89 1019.24 1019.61 1019.98 1020.36 1020.73 1021.09 1021.46 1021.82 1022.19 1022.57 1022.95 1023.35 1023.75 1024.16
1009.31 1009.35 1009.39 1009.41 1009.42 1009.41 1009.40 1009.42 1009.51 1009.68 1009.96 1010.37 1010.91 1011.55 1012.28 1013.06 1013.86 1014.62 1015.33 1015.96 1016.49 1016.93 1017.30 1017.60 1017.87 1018.12 1018.39 1018.68 1019.00 1019.37 1019.76 1020.18 1020.61 1021.05 1021.48 1021.91 1022.31 1022.71 1023.10 1023.48 1023.86 1024.24 1024.62 1025.01
1008.34 1008.51 1008.68 1008.82 1008.94 1009.03 1009.13 1009.25 1009.43 1009.69 1010.07 1010.57 1011.19 1011.92 1012.72 1013.57 1014.41 1015.22 1015.96 1016.60 1017.13 1017.57 1017.92 1018.20 1018.45 1018.69 1018.94 1019.23 1019.56 1019.93 1020.35 1020.80 1021.26 1021.73 1022.20 1022.65 1023.08 1023.49 1023.88 1024.26 1024.63 1025.00 1025.36 1025.73
1007.61 1007.90 1008.17 1008.42 1008.63 1008.81 1009.00 1009.20 1009.46 1009.80 1010.25 1010.82 1011.51 1012.29 1013.15 1014.03 1014.91 1015.75 1016.50 1017.16 1017.70 1018.15 1018.50 1018.78 1019.03 1019.27 1019.52 1019.81 1020.14 1020.52 1020.94 1021.40 1021.87 1022.35 1022.82 1023.27 1023.70 1024.11 1024.50 1024.87 1025.23 1025.58 1025.94 1026.29
1007.25 1007.62 1007.97 1008.29 1008.57 1008.82 1009.06 1009.33 1009.65 1010.06 1010.56 1011.17 1011.89 1012.70 1013.57 1014.47 1015.36 1016.20 1016.96 1017.61 1018.17 1018.61 1018.98 1019.27 1019.53 1019.78 1020.04 1020.33 1020.66 1021.04 1021.46 1021.91 1022.37 1022.84 1023.30 1023.74 1024.15 1024.55 1024.93 1025.29 1025.64 1025.99 1026.34 1026.68
1007.31 1007.72 1008.11 1008.47 1008.79 1009.08 1009.37 1009.69 1010.05 1010.48 1011.01 1011.64 1012.37 1013.17 1014.03 1014.91 1015.77 1016.58 1017.32 1017.96 1018.50 1018.95 1019.31 1019.62 1019.89 1020.15 1020.42 1020.72 1021.06 1021.43 1021.84 1022.27 1022.71 1023.16 1023.60 1024.02 1024.42 1024.80 1025.16 1025.52 1025.86 1026.21 1026.56 1026.90
1007.78 1008.19 1008.59 1008.96 1009.29 1009.61 1009.92 1010.26 1010.64 1011.10 1011.63 1012.25 1012.95 1013.72 1014.53 1015.35 1016.15 1016.91 1017.59 1018.19 1018.71 1019.13 1019.49 1019.80 1020.08 1020.35 1020.64 1020.94 1021.28 1021.65 1022.04 1022.46 1022.88 1023.30 1023.71 1024.11 1024.49 1024.86 1025.22 1025.57 1025.92 1026.27 1026.62 1026.96
1008.60 1008.99 1009.36 1009.71 1010.04 1010.36 1010.68 1011.03 1011.42 1011.87 1012.39 1012.98 1013.64 1014.34 1015.08 1015.82 1016.53 1017.20 1017.81 1018.35 1018.81 1019.20 1019.54 1019.84 1020.12 1020.40 1020.69 1021.00 1021.34 1021.70 1022.08 1022.47 1022.87 1023.27 1023.66 1024.04 1024.40 1024.77 1025.12 1025.48 1025.83 1026.19 1026.55 1026.90
1009.66 1010.01 1010.34 1010.65 1010.96 1011.27 1011.58 1011.93 1012.31 1012.75 1013.24 1013.79 1014.39 1015.02 1015.66 1016.30 1016.91 1017.48 1018.00 1018.46 1018.85 1019.20 1019.50 1019.79 1020.06 1020.33 1020.62 1020.93 1021.26 1021.61 1021.98 1022.35 1022.73 1023.10 1023.47 1023.84 1024.19 1024.55 1024.91 1025.27 1025.64 1026.01 1026.38 1026.73
1010.83 1011.12 1011.40 1011.68 1011.95 1012.24 1012.54 1012.88 1013.25 1013.67 1014.13 1014.63 1015.16 1015.71 1016.26 1016.79 1017.30 1017.76 1018.18 1018.55 1018.88 1019.17 1019.44 1019.69 1019.95 1020.21 1020.50 1020.80 1021.12 1021.46 1021.80 1022.16 1022.51 1022.86 1023.21 1023.55 1023.90 1024.25 1024.62 1024.99 1025.36 1025.75 1026.13 1026.49
1011.97 1012.21 1012.44 1012.68 1012.93 1013.19 1013.48 1013.80 1014.16 1014.56 1014.98 1015.44 1015.90 1016.37 1016.83 1017.27 1017.67 1018.04 1018.37 1018.66 1018.92 1019.16 1019.38 1019.61 1019.85 1020.10 1020.37 1020.66 1020.96 1021.28 1021.60 1021.93 1022.25 1022.58 1022.90 1023.23 1023.56 1023.91 1024.27 1024.65 1025.03 1025.42 1025.81 1026.18
1012.99 1013.18 1013.37 1013.58 1013.80 1014.05 1014.32 1014.63 1014.97 1015.35 1015.74 1016.15 1016.56 1016.96 1017.34 1017.70 1018.02 1018.31 1018.56 1018.78 1018.99 1019.18 1019.38 1019.58 1019.79 1020.03 1020.28 1020.55 1020.83 1021.12 1021.41 1021.70 1022.00 1022.29 1022.58 1022.89 1023.20 1023.54 1023.89 1024.26 1024.65 1025.04 1025.44 1025.82
Thickness
5734 5745 5749 5752 5752 5745 5744 5739 5732 5740 5745 5761 5768 5770 5770 5769 5767 5765 5763 5761 5758 5755 5751 5749 5747 5746 5744 5742 5740 5737 5733 5729 5726 5725 5723 5721 5720 5719 5719 5718 5717 5717 5716 5715
5730 5740 5744 5745 5750 5748 5749 5747 5747 5750 5751 5767 5769 5769 5767 5766 5764 5762 5760 5758 5755 5751 5749 5746 5744 5743 5740 5738 5735 5732 5728 5724 5722 5719 5717 5715 5714 5713 5712 5711 5711 5710 5709 5708
5710 5728 5735 5727 5744 5747 5750 5753 5751 5748 5759 5764 5763 5764 5765 5763 5762 5760 5758 5755 5752 5749 5747 5744 5741 5739 5736 5733 5730 5726 5722 5719 5716 5713 5711 5709 5708 5706 5705 5704 5703 5702 5701 5700
5699 5713 5704 5728 5751 5754 5752 5754 5757 5760 5763 5764 5766 5765 5764 5764 5761 5758 5755 5751 5748 5745 5742 5740 5737 5734 5730 5726 5723 5719 5715 5712 5709 5707 5704 5702 5701 5699 5697 5696 5695 5693 5692 5691
5687 5693 5706 5729 5745 5748 5745 5747 5757 5757 5758 5759 5760 5757 5754 5759 5760 5756 5752 5748 5744 5741 5738 5734 5731 5728 5724 5720 5715 5711 5708 5705 5703 5700 5697 5695 5692 5690 5689 5688 5687 5685 5684 5683
5684 5689 5691 5721 5744 5752 5748 5738 5755 5756 5755 5754 5754 5743 5748 5755 5754 5750 5746 5741 5737 5734 5731 5727 5724 5721 5717 5712 5708 5704 5701 5698 5696 5693 5691 5688 5685 5683 5681 5680 5679 5677 5675 5674
5681 5687 5698 5726 5738 5744 5724 5732 5753 5753 5753 5752 5750 5751 5752 5751 5747 5743 5739 5734 5731 5727 5723 5719 5716 5713 5709 5704 5700 5697 5694 5691 5688 5685 5683 5680 5678 5675 5673 5671 5669 5667 5666 5663
5672 5679 5691 5723 5729 5728 5731 5743 5747 5749 5749 5747 5745 5745 5744 5742 5739 5735 5731 5726 5722 5718 5713 5710 5708 5706 5700 5696 5692 5689 5687 5683 5680 5677 5675 5672 5670 5667 5665 5663 5661 5658 5655 5652
5677 5685 5702 5711 5717 5726 5730 5734 5739 5741 5741 5740 5737 5735 5734 5731 5728 5725 5722 5719 5714 5710 5704 5701 5699 5698 5693 5688 5685 5682 5678 5674 5670 5667 5664 5662 5660 5657 5656 5654 5652 5648 5645 5642
5674 5687 5698 5706 5713 5720 5726 5730 5734 5736 5736 5734 5731 5727 5724 5721 5718 5716 5713 5710 5707 5702 5697 5692 5689 5687 5684 5681 5677 5674 5669 5664 5661 5657 5654 5651 5648 5647 5645 5643 5641 5639 5636 5632
5668 5681 5690 5700 5705 5711 5717 5723 5726 5727 5727 5725 5723 5718 5715 5712 5709 5707 5704 5701 5698 5693 5688 5684 5680 5677 5675 5672 5669 5665 5660 5656 5651 5648 5644 5640 5636 5633 5632 5630 5630 5628 5625 5622
5662 5675 5679 5687 5696 5703 5708 5712 5715 5715 5713 5712 5713 5709 5706 5702 5700 5697 5694 5690 5687 5683 5679 5675 5672 5669 5666 5663 5661 5657 5651 5646 5643 5639 5635 5631 5627 5622 5619 5618 5617 5615 5614 5611
5664 5672 5675 5682 5688 5694 5697 5702 5704 5705 5703 5700 5699 5700 5697 5693 5689 5686 5683 5680 5677 5673 5670 5666 5664 5661 5657 5654 5652 5649 5644 5639 5634 5631 5627 5622 5619 5616 5611 5606 5604 5602 5600 5599
5659 5664 5667 5673 5678 5683 5688 5691 5693 5692 5691 5690 5689 5688 5686 5683 5679 5676 5672 5670 5667 5664 5661 5658 5656 5651 5648 5645 5643 5639 5635 5631 5627 5622 5617 5613 5609 5606 5603 5600 5595 5590 5587 5585
5653 5658 5662 5667 5670 5673 5676 5679 5679 5678 5678 5677 5677 5676 5676 5673 5670 5665 5663 5661 5659 5656 5653 5650 5646 5642 5638 5636 5633 5630 5626 5622 5617 5613 5608 5604 5600 5596 5593 5589 5585 5580 5577 5574
5646 5651 5655 5658 5661 5663 5666 5667 5667 5667 5667 5667 5666 5665 5663 5662 5659 5655 5653 5652 5650 5647 5643 5641 5636 5632 5629 5627 5624 5620 5617 5613 5609 5604 5600 5595 5591 5587 5583 5579 5575 5571 5568 5565
5640 5643 5647 5651 5653 5655 5656 5657 5657 5657 5657 5656 5654 5653 5652 5650 5648 5645 5642 5640 5639 5637 5633 5630 5626 5623 5620 5618 5615 5611 5608 5604 5600 5595 5591 5587 5583 5579 5574 5571 5566 5562 5558 5555
5638 5642 5646 5648 5648 5648 5648 5648 5648 5647 5646 5646 5645 5643 5642 5641 5638 5635 5633 5631 5629 5626 5622 5620 5617 5615 5611 5608 5605 5602 5599 5594 5590 5587 5582 5578 5573 5570 5566 5562 5558 5553 5548 5544
5632 5635 5637 5640 5641 5641 5641 5640 5639 5638 5638 5637 5636 5634 5631 5630 5628 5626 5624 5622 5620 5616 5612 5610 5608 5606 5602 5599 5597 5593 5590 5586 5582 5577 5574 5570 5566 5562 5558 5554 5549 5545 5540 5536
5625 5627 5629 5631 5632 5633 5633 5632 5631 5630 5630 5628 5626 5623 5620 5618 5617 5616 5614 5611 5608 5606 5604 5602 5600 5597 5594 5592 5589 5586 5582 5579 5575 5570 5566 5562 5559 5554 5550 5546 5541 5537 5532 5528
5617 5619 5621 5622 5623 5623 5624 5624 5623 5622 5621 5619 5617 5614 5611 5609 5608 5607 5605 5600 5597 5597 5596 5594 5592 5589 5587 5584 5581 5578 5575 5571 5568 5564 5560 5556 5551 5547 5542 5538 5534 5529 5525 5521
5610 5611 5612 5614 5614 5613 5613 5613 5614 5613 5611 5609 5607 5605 5603 5600 5598 5597 5595 5592 5590 5589 5587 5586 5584 5582 5580 5577 5574 5571 5568 5564 5561 5557 5553 5548 5544 5540 5535 5531 5527 5523 5518 5514
5604 5605 5605 5606 5606 5605 5604 5604 5605 5604 5602 5601 5599 5597 5596 5593 5592 5591 5586 5583 5583 5581 5580 5579 5577 5575 5573 5570 5567 5564 5561 5557 5554 5550 5546 5542 5538 5534 5530 5525 5521 5517 5512 5508
5597 5598 5598 5598 5598 5597 5596 5595 5594 5594 5593 5592 5591 5590 5588 5585 5582 5581 5580 5578 5576 5574 5572 5570 5569 5567 5565 5563 5560 5557 5554 5550 5547 5543 5540 5536 5532 5528 5524 5520 5515 5511 5507 5502
5590 5591 5591 5591 5591 5590 5588 5587 5586 5585 5585 5583 5581 5580 5580 5579 5577 5574 5573 5571 5568 5567 5565 5563 5562 5560 5558 5556 5553 5550 5547 5544 5541 5537 5534 5530 5526 5522 5518 5514 5510 5506 5502 5497
5584 5584 5585 5585 5584 5583 5582 5581 5579 5578 5577 5575 5573 5572 5572 5571 5570 5568 5565 5563 5562 5561 5559 5557 5555 5553 5551 5549 5547 5544 5541 5538 5534 5531 5528 5524 5521 5517 5513 5509 5505 5501 5496 5492
5578 5578 5578 5577 5576 5576 5576 5575 5573 5572 5571 5570 5567 5565 5565 5564 5562 5560 5559 5557 5555 5554 5552 5550 5548 5547 5545 5543 5541 5538 5535 5532 5529 5525 5522 5519 5515 5511 5508 5504 5499 5495 5491 5486